Regional Weather Roundup
Issued by NWS

Home | Current Version | Previous Version | Graphics & Text | Print | Product List | Glossary Off
Versions: 1 2 3 4 5 6 7 8 9 10 11 12 13 14 15 16 17 18 19 20 21 22 23 24 25 26 27 28 29 30 31 32 33 34 35 36 37 38 39 40 41 42 43 44 45 46 47 48 49 50

000
ASUS43 KMKX 300300
RWRWI

WISCONSIN REGIONAL WEATHER ROUNDUP
NATIONAL WEATHER SERVICE MILWAUKEE/SULLIVAN WI
1000 PM CDT WED JUL 29 2015

NOTE: "FAIR" INDICATES FEW OR NO CLOUDS BELOW 12,000 FEET WITH NO
SIGNIFICANT WEATHER AND/OR OBSTRUCTIONS TO VISIBILITY.

WIZ001-002-006>008-014>016-023>028-300400-
NORTHWEST WISCONSIN

CITY           SKY/WX    TMP DP  RH WIND       PRES   REMARKS
SUPERIOR ARPT  CLEAR     69  54  58 SW8       29.83R
ASHLAND        PTCLDY    69  55  60 SW7       29.84R
HAYWARD        PTCLDY    71  52  50 SW7       29.90R
SIREN          CLEAR     71  52  50 W9        29.91R
CUMBERLAND     CLEAR     64  54  68 W6        29.93R
RICE LAKE      PTCLDY    68  54  60 SW5       29.94R
CHETEK         PTCLDY    70  55  59 SW5       29.92R
LADYSMITH      PTCLDY    70  55  58 SW7       29.93R
EAU CLAIRE     NOT AVBL
MENOMONIE      CLEAR     72  55  55 SW7       29.94R
NEW RICHMOND   CLEAR     70  54  56 W9        29.95R
OSCEOLA        CLEAR     71  55  57 W8        29.96R
$$

WIZ003>005-009-010-017-018-300400-
NORTH CENTRAL WISCONSIN

CITY           SKY/WX    TMP DP  RH WIND       PRES   REMARKS
MANITOWISH WTR CLOUDY    70  55  60 W8        29.87R
ARBOR VITAE    PTCLDY    72  58  60 W7        29.88R
WOODRUFF       PTCLDY    72  58  60 W7        29.88R
RHINELANDER    CLEAR     69  53  56 W10       29.90R
EAGLE RIVER    MOCLDY    70  52  52 W10       29.87R
LAND O LAKES   CLOUDY    71  54  55 W7        29.87R
PHILLIPS       CLEAR     69  55  62 SW7       29.89S
TOMAHAWK       PTCLDY    68  53  57 SW5       29.91R
MEDFORD        CLEAR     66  56  68 SW7       29.94R
MERRILL        NOT AVBL
$$

WIZ029-030-035-036-043>047-300400-
CENTRAL WISCONSIN

CITY           SKY/WX    TMP DP  RH WIND       PRES   REMARKS
WAUSAU         CLEAR     72  55  55 W10       29.92R
MOSINEE        PTCLDY    66  55  68 SW7       29.95R
MARSHFIELD     CLEAR     68  54  60 W8        29.96R
STEVENS POINT  PTCLDY    71  54  55 SW7       29.95R
WAUPACA        CLEAR     73  54  51 SW6       29.94R
WAUTOMA        NOT AVBL
WISC RAPIDS    PTCLDY    70  52  52 W7        29.97R
CAMP DOUGLAS   NOT AVBL
$$

WIZ011>013-019>022-031-037>040-048>050-300400-
NORTHEAST WISCONSIN

CITY           SKY/WX    TMP DP  RH WIND       PRES   REMARKS
ANTIGO         CLEAR     67  54  63 W10       29.92R
SHAWANO        CLEAR     74  54  48 SW6       29.91R
OCONTO         CLEAR     69  56  62 SW5       29.88R
STURGEON BAY   PTCLDY    72  55  56 SW7       29.91R
GREEN BAY      CLEAR     71  55  56 SW6       29.91R
MANITOWOC      NOT AVBL
APPLETON       PTCLDY    72  52  49 SW7       29.94R
CLINTONVILLE   CLEAR     70  54  56 SW6       29.91R
OSHKOSH        CLEAR     72  53  51 CALM      29.94R
$$

WIZ032>034-041-042-053>061-300400-
SOUTHWEST WISCONSIN

CITY           SKY/WX    TMP DP  RH WIND       PRES   REMARKS
LA CROSSE      CLEAR     73  55  53 W6        29.98R
SPARTA         CLEAR     71  52  52 SW3       29.99R
VIROQUA        CLEAR     67  55  64 W7        30.02R
BOSCOBEL       CLEAR     66  58  75 CALM      30.02R
PRAIRIE DU CHI CLEAR     71  55  56 CALM      30.02R
PLATTEVILLE    CLEAR     68  57  68 SW7       30.04R
$$

WIZ056-057-062-063-064-067-068-300400-
SOUTH CENTRAL WISCONSIN

CITY           SKY/WX    TMP DP  RH WIND       PRES   REMARKS
REEDSBURG      CLEAR     71  55  57 SW6       29.98R
BARABOO/DELLS  CLEAR     70  51  51 W6        29.99R
LONE ROCK      NOT AVBL
MINERAL POINT  CLEAR     70  54  56 W5        30.04R
MADISON        CLEAR     74  54  49 VRB6      30.00R
MIDDLETON      CLEAR     68  53  56 W3        30.01R
WATERTOWN      CLEAR     69  56  61 W5        29.98R
MONROE         CLEAR     72  54  53 W13       30.03R
JANESVILLE     CLEAR     72  52  49 W8        30.01R
$$

WIZ051-052-058>065-066-070>072-300400-
SOUTHEAST WISCONSIN

CITY           SKY/WX    TMP DP  RH WIND       PRES   REMARKS
MILWAUKEE      CLEAR     77  51  40 W9        29.98R
WAUKESHA       CLEAR     70  52  52 SW6       29.99R
MILWAUKEE/TIMM CLEAR     73  50  43 W8        29.98
RACINE         CLEAR     73  53  49 W7        30.00R
BURLINGTON     CLEAR     67  53  62 SW6       30.00R
KENOSHA        CLEAR     66  55  67 SW8       30.00R
FOND DU LAC    CLEAR     70  54  56 SW7       29.96R
SHEBOYGAN      CLEAR     68  55  63 W7        29.94R
WEST BEND      CLEAR     72  52  49 W6        29.97R
JUNEAU         CLEAR     68  55  61 SW5       29.98R
$$

LSZ147-162-300400-
LAKE SUPERIOR

STATION/POSITION TIME  TEMP    WIND        PRES    WAVE
                       AIR SEA DIR/SP/G            HT/PER
                 (UTC) (F)     (DEG/KT/KT) (MB)    (FT/S)
W MID LAKE BUOY  0150   60 55  210/ 12/ 14 1006.5F   3/ 6
DEVILS ISLAND    0200   68     240/ 20/ 24 1007.7R
PORT WING        0200   73     240/ 12/ 16 1009.5
SAXON HARBOR     0200   73                 1009.1
$$

LMZ867-665-643>646-300400-
LAKE MICHIGAN

STATION/POSITION TIME  TEMP    WIND        PRES    WAVE
                       AIR SEA DIR/SP/G            HT/PER
                 (UTC) (F)     (DEG/KT/KT) (MB)    (FT/S)
CHAMBERS ISLAND  0200   75     210/  5/  9 1010.5R
S GREEN BAY BUOY 0200   71 67  240/  8/ 10 1012.9R
N MID LAKE BUOY  0150   72 70  260/  8/  8 1009.7R   2/ 5
NORTHPORT PIER   0200   77     270/  5/ 10 1010.5R
SISTER BAY       0214   76     270/ 10/ 12   N/A
ALGOMA LAKESHORE 0212          260/  3/  6   N/A
KEWAUNEE LAKESHO 0200   77                   N/A
SHEBOYGAN LAKESH 0200   78     240/  6/  7 1013.2R
PORT WASHINGTON  0200   77     250/  4/  8 1014.2R
ATWATER BUOY     0200   75     240/  4/  6 1015.7R
MILWAUKEE LAKESH 0215   79     260/  8/ 12   N/A
KENOSHA   LAKESH 0200   79     260/ 11/ 15 1014.2R
$$

TC  - TEMPERATURE IN CELSIUS
VSB - VISIBILITY IN STATUTE MILES
WCI - WIND CHILL INDEX
HX  - HEAT INDEX




USA.gov is the U.S. government's official web portal to all federal, state and local government web resources and services.